TimeAKST,TemperatureF,Dew PointF,Humidity,Sea Level PressureIn,VisibilityMPH,Wind Direction,Wind SpeedMPH,Gust SpeedMPH,PrecipitationIn,Events,Conditions,WindDirDegrees,DateUTC
12:02 AM,6.8,3.2,85,29.58,2.0,WSW,13.8,-,0.00,Snow,Light Snow,240,2013-02-15 09:02:00
12:05 AM,6.8,3.2,85,29.59,1.8,WSW,17.3,21.9,0.00,Snow,Light Snow,240,2013-02-15 09:05:00
12:26 AM,6.8,1.4,79,29.60,2.5,WSW,12.7,-,0.00,Snow,Light Snow,240,2013-02-15 09:26:00
12:30 AM,6.8,1.4,79,29.61,4.0,WSW,15.0,-,0.00,Snow,Light Snow,240,2013-02-15 09:30:00
12:34 AM,6.8,1.4,79,29.61,3.0,WSW,15.0,-,0.00,Snow,Light Snow,240,2013-02-15 09:34:00
12:39 AM,6.8,1.4,79,29.61,2.0,WSW,13.8,-,0.00,Snow,Light Snow,240,2013-02-15 09:39:00
12:45 AM,6.8,1.4,79,29.61,1.8,WSW,17.3,23.0,0.00,Snow,Light Snow,250,2013-02-15 09:45:00
12:58 AM,5.0,1.0,84,29.65,2.5,WSW,12.7,-,0.00,Snow,Light Snow,250,2013-02-15 09:58:00
1:03 AM,5.0,1.4,85,29.63,3.0,WSW,12.7,-,0.00,Snow,Light Snow,240,2013-02-15 10:03:00
1:11 AM,5.0,1.4,85,29.63,3.0,WSW,12.7,-,0.00,Snow,Light Snow,250,2013-02-15 10:11:00
1:58 AM,3.9,-2.0,76,29.68,9.0,WSW,12.7,-,0.00,Snow,Light Snow,240,2013-02-15 10:58:00
2:21 AM,3.2,-2.2,78,29.67,9.0,WSW,13.8,-,0.00,Snow,Light Snow,240,2013-02-15 11:21:00
2:44 AM,1.4,-4.0,78,29.69,10.0,WSW,13.8,-,0.00,,Scattered Clouds,250,2013-02-15 11:44:00
2:58 AM,1.0,-5.1,75,29.73,10.0,WSW,13.8,-,0.00,,Partly Cloudy,250,2013-02-15 11:58:00
3:58 AM,-2.0,-8.0,76,29.77,10.0,SW,6.9,-,N/A,,Clear,230,2013-02-15 12:58:00
4:58 AM,-5.1,-11.0,76,29.80,10.0,SW,6.9,-,N/A,,Mostly Cloudy,230,2013-02-15 13:58:00
5:58 AM,-5.1,-11.0,76,29.84,10.0,South,4.6,-,N/A,,Mostly Cloudy,170,2013-02-15 14:58:00
6:58 AM,-8.0,-14.1,75,29.88,10.0,SSW,8.1,-,N/A,,Clear,200,2013-02-15 15:58:00
7:58 AM,-11.9,-17.0,78,29.90,10.0,East,5.8,-,0.00,,Clear,100,2013-02-15 16:58:00
8:58 AM,-14.1,-18.9,79,29.93,10.0,ESE,4.6,-,N/A,,Clear,120,2013-02-15 17:58:00
9:58 AM,-11.9,-18.0,74,29.97,10.0,SE,4.6,-,N/A,,Clear,140,2013-02-15 18:58:00
10:58 AM,-9.9,-17.0,71,29.99,10.0,SE,6.9,-,N/A,,Overcast,130,2013-02-15 19:58:00
11:58 AM,-7.1,-14.1,72,29.99,10.0,SE,8.1,-,0.00,,Overcast,130,2013-02-15 20:58:00
12:58 PM,-6.0,-14.1,68,30.02,10.0,SE,6.9,-,N/A,,Overcast,140,2013-02-15 21:58:00
1:58 PM,-4.0,-13.0,65,30.03,10.0,Variable,3.5,-,N/A,,Overcast,0,2013-02-15 22:58:00
2:58 PM,-2.9,-11.9,65,30.04,10.0,SSE,11.5,-,0.00,Snow,Light Snow,150,2013-02-15 23:58:00
3:58 PM,-2.9,-11.0,68,30.05,9.0,SSE,10.4,-,0.00,Snow,Light Snow,150,2013-02-16 00:58:00
4:58 PM,-2.9,-11.0,68,30.06,9.0,SE,8.1,-,0.00,Snow,Light Snow,140,2013-02-16 01:58:00
5:58 PM,-2.9,-11.0,68,30.06,10.0,ESE,3.5,-,0.00,,Overcast,120,2013-02-16 02:58:00
6:35 PM,-4.0,-11.2,71,30.04,10.0,SE,5.8,-,N/A,,Overcast,130,2013-02-16 03:35:00
6:58 PM,-5.1,-11.0,76,30.07,10.0,SE,5.8,-,N/A,,Overcast,140,2013-02-16 03:58:00
7:26 PM,-5.8,-11.2,77,30.06,10.0,East,3.5,-,N/A,,Overcast,100,2013-02-16 04:26:00
7:37 PM,-7.6,-11.2,84,30.06,7.0,Calm,Calm,-,0.00,Snow,Light Snow,0,2013-02-16 04:37:00
7:46 PM,-7.6,-11.2,84,30.05,8.0,SSE,4.6,-,0.00,Snow,Light Snow,150,2013-02-16 04:46:00
7:58 PM,-7.1,-11.0,83,30.08,9.0,SE,5.8,-,0.00,,Overcast,130,2013-02-16 04:58:00
8:44 PM,-5.8,-9.4,84,30.06,10.0,SE,5.8,-,0.00,,Overcast,130,2013-02-16 05:44:00
8:53 PM,-5.8,-9.4,84,30.05,10.0,SE,6.9,-,0.00,,Mostly Cloudy,130,2013-02-16 05:53:00
8:58 PM,-6.0,-9.9,83,30.08,10.0,SE,6.9,-,0.00,,Mostly Cloudy,130,2013-02-16 05:58:00
9:58 PM,-6.0,-9.9,83,30.08,7.0,Calm,Calm,-,0.00,Snow,Light Snow,0,2013-02-16 06:58:00
10:56 PM,-5.8,-9.4,84,30.06,2.5,Calm,Calm,-,0.00,Snow,Light Snow,0,2013-02-16 07:56:00
10:58 PM,-5.1,-9.0,83,30.09,2.0,Calm,Calm,-,0.00,Snow,Light Snow,0,2013-02-16 07:58:00
11:13 PM,-5.8,-9.4,84,30.07,3.0,East,3.5,-,0.00,Snow,Light Snow,90,2013-02-16 08:13:00
11:20 PM,-5.8,-9.4,84,30.07,2.5,East,3.5,-,0.00,Snow,Light Snow,100,2013-02-16 08:20:00
11:52 PM,-5.8,-9.4,84,30.07,2.5,Calm,Calm,-,0.00,Snow,Light Snow,0,2013-02-16 08:52:00
11:57 PM,-5.1,-9.0,83,30.10,3.0,Calm,Calm,-,0.00,Snow,Light Snow,0,2013-02-16 08:57:00